Preview of NWS' New Version of Forecast
This preview is not operational and should not be used for support decisions.

Regional Weather Roundup (RWR)

Issued by National Weather Service (NWS)

                            
000
ASUS44 KMEG 172200
RWRTN 
TENNESSEE HOURLY STATE WEATHER ROUNDUP
NATIONAL WEATHER SERVICE MEMPHIS TN
500 PM CDT WED APR 17 2019

TNZ002-004-019-021-049-052-054-088>092-172300-
WEST TENNESSEE
  
CITY           SKY/WX    TMP DP  RH WIND       PRES   REMARKS
MEMPHIS INTL   CLOUDY    72  62  71 S13       29.89F                  
NWS MEMPHIS      N/A     73 N/A N/A MISG        N/A                   
JACKSON        FAIR      74  55  51 S12G20    29.90F                  
DYERSBURG      PTSUNNY   75  57  53 S14G20    29.87F                  
$$

TNZ008-025-027-028-033-062-065-066-172300-
NORTH MIDDLE TENNESSEE
  
CITY           SKY/WX    TMP DP  RH WIND       PRES   REMARKS
NASHVILLE      CLOUDY    76  48  37 S15       29.94R                  
CLARKSVILLE    FAIR      80  41  24 SW15      29.87F                  
SMYRNA         FAIR      76  51  41 S8        29.95S                  
CROSSVILLE     FAIR      75  45  34 S12G18    30.00F                  
$$

TNZ061-075-076-078-094-096-097-172300-
SOUTH MIDDLE TENNESSEE
  
CITY           SKY/WX    TMP DP  RH WIND       PRES   REMARKS
$$

TNZ017-018-042-046-047-172300-
NORTHEAST TENNESSEE
  
CITY           SKY/WX    TMP DP  RH WIND       PRES   REMARKS
TRI CITIES     CLOUDY    74  43  32 SW8       30.02F                  
$$

TNZ012-013-036-069-073-074-172300-
CENTRAL EAST TENNESSEE
  
CITY           SKY/WX    TMP DP  RH WIND       PRES   REMARKS
KNOXVILLE      CLOUDY    77  47  34 SW12      29.97F                  
OAK RIDGE      FAIR      80  44  27 VRB5      29.98F                  
$$

TNZ083-085-099-172300-
SOUTHEAST TENNESSEE
  
CITY           SKY/WX    TMP DP  RH WIND       PRES   REMARKS
CHATTANOOGA    PTSUNNY   80  38  22 S13G21    29.99F                  
$$

SKY/WX REPORTED AS FAIR MEANS FEW OR NO CLOUDS BELOW
12 THOUSAND FEET.